KC0KLG Weather Reports


time (UTC)temp
C
wind
direction
speed
KPH
gust
KPH
rain 1hr
cm
rain 24hr
cm
rain mn
cm
humidity
%
barometer
mb
20260505010049 13 11 12.9 30.6 0.00 0.00 0.00 43 1013.7
20260505010010 13 11 12.9 30.6 0.00 0.00 0.00 43 1011.3
20260505004556 13 49 4.8 19.3 0.00 0.00 0.00 44 1011.1
20260505004552 13 48 6.4 25.7 0.00 0.00 0.00 44 1013.6
20260505003045 13 36 12.9 29.0 0.00 0.00 0.00 43 1011.2
20260505003043 13 316 11.3 29.0 0.00 0.00 0.00 42 1013.7
20260505001552 13 10 11.3 25.7 0.00 0.00 0.00 42 1013.7
20260505001534 13 19 9.7 25.7 0.00 0.00 0.00 43 1011.0
20260505000106 13 58 11.3 25.7 0.00 0.00 0.00 43 1013.6
20260505000035 13 65 12.9 25.7 0.00 0.00 0.00 43 1011.0
20260504234546 13 352 12.9 25.7 0.00 0.00 0.00 42 1013.6
20260504234519 13 346 12.9 25.7 0.00 0.00 0.00 43 1010.9
20260504233051 14 344 12.9 25.7 0.00 0.00 0.00 42 1013.4
20260504233012 14 348 14.5 25.7 0.00 0.00 0.00 43 1010.7
20260504231557 13 32 9.7 22.5 0.00 0.00 0.00 44 1010.8
20260504231546 13 335 9.7 25.7 0.00 0.00 0.00 44 1013.6
20260504230104 13 63 11.3 25.7 0.00 0.00 0.00 43 1010.6
20260504224549 14 26 8.0 20.9 0.00 0.00 0.00 41 1010.7
20260504224544 14 34 6.4 20.9 0.00 0.00 0.00 41 1013.5
20260504223044 14 30 9.7 19.3 0.00 0.00 0.00 41 1013.4
20260504223042 14 19 11.3 19.3 0.00 0.00 0.00 41 1010.7
20260504221558 15 360 8.0 20.9 0.00 0.00 0.00 41 1013.5
20260504221553 15 20 8.0 20.9 0.00 0.00 0.00 41 1010.5
20260504220046 15 351 8.0 20.9 0.00 0.00 0.00 40 1013.5
20260504220037 15 27 9.7 20.9 0.00 0.00 0.00 41 1010.5
20260504214542 14 28 6.4 17.7 0.00 0.00 0.00 41 1013.5
20260504214529 14 22 8.0 17.7 0.00 0.00 0.00 41 1010.5
20260504213050 15 59 11.3 20.9 0.00 0.00 0.00 40 1013.6
20260504213017 15 55 9.7 20.9 0.00 0.00 0.00 40 1010.5
20260504211548 15 10 6.4 19.3 0.00 0.00 0.00 41 1013.5
20260504211515 15 34 6.4 19.3 0.00 0.00 0.00 41 1010.4
20260504210057 14 30 6.4 24.1 0.00 0.00 0.00 44 1010.4
20260504210048 14 63 8.0 24.1 0.00 0.00 0.00 44 1013.5
20260504204600 14 332 8.0 19.3 0.00 0.00 0.00 41 1013.6
20260504204547 14 9 8.0 19.3 0.00 0.00 0.00 42 1010.4
20260504203101 15 66 6.4 17.7 0.00 0.00 0.00 42 1013.4
20260504203049 15 317 4.8 17.7 0.00 0.00 0.00 42 1010.2
20260504201544 14 5 9.7 20.9 0.00 0.00 0.00 41 1013.6
20260504201539 14 17 11.3 20.9 0.00 0.00 0.00 41 1010.5
20260504200050 15 336 9.7 24.1 0.00 0.00 0.00 41 1013.4
20260504200035 15 355 12.9 20.9 0.00 0.00 0.00 41 1010.2
20260504194549 14 13 6.4 19.3 0.00 0.00 0.00 42 1013.6
20260504194533 14 34 6.4 16.1 0.00 0.00 0.00 43 1010.3
20260504193045 14 329 6.4 29.0 0.00 0.00 0.00 42 1013.6
20260504193030 14 327 6.4 29.0 0.00 0.00 0.00 43 1010.3
20260504191602 14 352 8.0 20.9 0.00 0.00 0.00 43 1013.6
20260504191529 14 15 9.7 20.9 0.00 0.00 0.00 43 1010.3
20260504190058 15 329 11.3 22.5 0.00 0.00 0.00 41 1013.7
20260504190020 15 5 11.3 22.5 0.00 0.00 0.00 41 1010.2
20260504184547 14 25 4.8 24.1 0.00 0.00 0.00 42 1013.8
20260504184514 14 17 6.4 24.1 0.00 0.00 0.00 41 1010.4
20260504183047 13 13 8.0 20.9 0.00 0.00 0.00 42 1013.9
20260504183003 14 97 9.7 20.9 0.00 0.00 0.00 42 1010.4
20260504181600 13 28 8.0 43.5 0.00 0.00 0.00 42 1010.5
20260504181545 13 22 9.7 43.5 0.00 0.00 0.00 41 1014.0
20260504180047 13 341 6.4 19.3 0.00 0.00 0.00 43 1010.5
20260504180042 13 352 8.0 19.3 0.00 0.00 0.00 42 1013.9
20260504174544 13 63 4.8 25.7 0.00 0.00 0.00 43 1014.1
20260504174537 13 42 6.4 25.7 0.00 0.00 0.00 43 1010.7
20260504173047 13 340 1.6 22.5 0.00 0.00 0.00 44 1014.1
20260504173030 13 340 1.6 22.5 0.00 0.00 0.00 44 1010.6
20260504171547 13 109 4.8 19.3 0.00 0.00 0.00 44 1014.2
20260504171519 13 23 4.8 19.3 0.00 0.00 0.00 44 1010.7
20260504100104 10 76 6.4 16.1 0.00 0.00 0.00 48 1009.6
20260504081549 13 23 9.7 24.1 0.00 0.00 0.00 42 1011.6
20260504081522 13 11 8.0 22.5 0.00 0.00 0.00 42 1009.0
20260504060104 7 121 3.2 4.8 0.00 0.00 0.00 67 1008.2
20260504050022 8 121 1.6 3.2 0.00 0.00 0.00 66 1008.4
20260504044546 8 0 1.6 4.8 0.00 0.00 0.00 64 1011.1
20260504044516 8 121 1.6 4.8 0.00 0.00 0.00 65 1008.4
20260504043050 9 121 1.6 3.2 0.00 0.00 0.00 60 1011.0
20260504043012 9 121 1.6 3.2 0.00 0.00 0.00 60 1008.3
20260504041601 10 121 3.2 4.8 0.00 0.00 0.00 60 1008.4
20260504041546 10 121 3.2 4.8 0.00 0.00 0.00 59 1011.2
20260504041509 10 121 3.2 4.8 0.00 0.00 0.00 59 1008.4
20260504040054 11 106 3.2 4.8 0.00 0.00 0.00 52 1008.4
20260504040050 11 107 3.2 4.8 0.00 0.00 0.00 52 1011.2
20260504034550 11 112 3.2 4.8 0.00 0.00 0.00 52 1008.3
20260504034544 11 112 3.2 4.8 0.00 0.00 0.00 52 1011.0
20260504033047 12 103 3.2 6.4 0.00 0.00 0.00 50 1010.9
20260504033044 12 103 3.2 6.4 0.00 0.00 0.00 50 1008.2
20260504031549 13 111 3.2 4.8 0.00 0.00 0.00 50 1010.8
20260504031543 13 111 3.2 4.8 0.00 0.00 0.00 51 1008.0
20260504030049 15 117 1.6 4.8 0.00 0.00 0.00 43 1010.7
20260504030035 15 117 1.6 4.8 0.00 0.00 0.00 43 1007.9
20260504024600 17 22 0.0 4.8 0.00 0.00 0.00 35 1010.6
20260504024522 17 22 0.0 4.8 0.00 0.00 0.00 35 1007.8
20260504023045 17 5 0.0 4.8 0.00 0.00 0.00 32 1010.6
20260504023020 17 297 0.0 4.8 0.00 0.00 0.00 32 1007.8
20260504021546 18 298 0.0 6.4 0.00 0.00 0.00 29 1010.7
20260504021517 18 290 1.6 6.4 0.00 0.00 0.00 30 1007.8
20260504020058 19 292 3.2 9.7 0.00 0.00 0.00 28 1007.9
20260504020047 19 309 3.2 12.9 0.00 0.00 0.00 28 1010.7
20260504014551 20 285 3.2 9.7 0.00 0.00 0.00 27 1007.9
20260504014547 20 220 1.6 9.7 0.00 0.00 0.00 27 1010.7
20260504013046 20 318 4.8 12.9 0.00 0.00 0.00 24 1010.7
20260504013042 20 269 4.8 12.9 0.00 0.00 0.00 25 1008.0
20260504011546 21 313 3.2 12.9 0.00 0.00 0.00 24 1010.6
20260504011529 21 313 3.2 12.9 0.00 0.00 0.00 24 1008.0